Time,TemperatureF,DewpointF,PressureIn,WindDirection,WindDirectionDegrees,WindSpeedMPH,WindSpeedGustMPH,Humidity,HourlyPrecipIn,Conditions,Clouds,dailyrainin,SoftwareType,DateUTC
2013-03-31 00:00:00,40.2,18.9,29.80,NNE,20,0.0,0.0,42,0.00,CLR,SCT,0.00,WeatherDisplay:10.37,2013-03-31 04:00:00,
2013-03-31 00:05:00,40.0,18.7,29.80,NNE,20,0.0,0.0,42,0.00,CLR,SCT,0.00,WeatherDisplay:10.37,2013-03-31 04:05:00,
2013-03-31 00:10:00,40.1,18.8,29.80,NNE,20,0.5,1.1,42,0.00,CLR,SCT,0.00,WeatherDisplay:10.37,2013-03-31 04:10:00,
2013-03-31 00:15:00,39.6,18.9,29.80,NNE,20,0.3,1.1,43,0.00,CLR,SCT,0.00,WeatherDisplay:10.37,2013-03-31 04:15:00,
2013-03-31 00:20:00,39.3,18.6,29.80,NNE,20,0.2,1.1,43,0.00,CLR,SCT,0.00,WeatherDisplay:10.37,2013-03-31 04:20:00,
2013-03-31 00:25:00,39.3,18.6,29.80,NNE,20,0.3,1.1,43,0.00,CLR,SCT,0.00,WeatherDisplay:10.37,2013-03-31 04:25:00,
2013-03-31 00:30:00,39.4,18.7,29.80,NNE,20,0.0,1.1,43,0.00,CLR,SCT,0.00,WeatherDisplay:10.37,2013-03-31 04:30:00,
2013-03-31 00:35:00,39.5,18.8,29.80,NNE,20,0.8,1.1,43,0.00,CLR,SCT,0.00,WeatherDisplay:10.37,2013-03-31 04:35:00,
2013-03-31 00:40:00,39.5,18.8,29.80,NNE,20,0.4,1.1,43,0.00,CLR,SCT,0.00,WeatherDisplay:10.37,2013-03-31 04:40:00,
2013-03-31 00:45:00,39.6,18.9,29.80,NNE,20,0.2,1.1,43,0.00,CLR,SCT,0.00,WeatherDisplay:10.37,2013-03-31 04:45:00,
2013-03-31 00:50:00,39.7,18.5,29.80,NNE,20,0.0,0.0,42,0.00,CLR,SCT,0.00,WeatherDisplay:10.37,2013-03-31 04:50:00,
2013-03-31 00:55:00,39.6,18.9,29.80,NNE,20,0.5,1.1,43,0.00,CLR,SCT,0.00,WeatherDisplay:10.37,2013-03-31 04:55:00,
2013-03-31 01:00:00,39.5,18.8,29.80,NNE,20,0.0,0.0,43,0.00,CLR,SCT,0.00,WeatherDisplay:10.37,2013-03-31 05:00:00,
2013-03-31 01:05:00,39.5,18.8,29.80,NNE,20,0.3,1.1,43,0.00,CLR,SCT,0.00,WeatherDisplay:10.37,2013-03-31 05:05:00,
2013-03-31 01:10:00,39.2,19.1,29.80,NNE,20,0.9,1.1,44,0.00,CLR,SCT,0.00,WeatherDisplay:10.37,2013-03-31 05:10:00,
2013-03-31 01:15:00,38.8,18.2,29.80,NNE,20,0.7,1.1,43,0.00,CLR,SCT,0.00,WeatherDisplay:10.37,2013-03-31 05:15:00,
2013-03-31 01:20:00,38.6,18.0,29.80,NNE,20,0.2,1.1,43,0.00,CLR,SCT,0.00,WeatherDisplay:10.37,2013-03-31 05:20:00,
2013-03-31 01:25:00,38.8,18.2,29.80,NNE,20,0.0,0.0,43,0.00,CLR,SCT,0.00,WeatherDisplay:10.37,2013-03-31 05:25:00,
2013-03-31 01:30:00,39.0,18.4,29.80,NNE,20,0.1,1.1,43,0.00,CLR,SCT,0.00,WeatherDisplay:10.37,2013-03-31 05:30:00,
2013-03-31 01:35:00,39.2,18.0,29.80,NNE,20,0.0,0.0,42,0.00,CLR,SCT,0.00,WeatherDisplay:10.37,2013-03-31 05:35:00,
2013-03-31 01:40:00,39.2,18.0,29.80,NNE,20,0.0,0.0,42,0.00,CLR,SCT,0.00,WeatherDisplay:10.37,2013-03-31 05:40:00,
2013-03-31 01:45:00,39.3,18.1,29.80,NNE,20,0.0,0.0,42,0.00,CLR,SCT,0.00,WeatherDisplay:10.37,2013-03-31 05:45:00,
2013-03-31 01:50:00,39.2,18.0,29.80,NNE,20,0.0,0.0,42,0.00,CLR,SCT,0.00,WeatherDisplay:10.37,2013-03-31 05:50:00,
2013-03-31 01:55:00,39.2,18.0,29.80,NNE,20,0.0,0.0,42,0.00,CLR,SCT,0.00,WeatherDisplay:10.37,2013-03-31 05:55:00,
2013-03-31 02:00:00,39.1,18.5,29.80,NNE,20,0.0,0.0,43,0.00,CLR,SCT,0.00,WeatherDisplay:10.37,2013-03-31 06:00:00,
2013-03-31 02:05:00,38.9,18.3,29.80,NNE,20,0.0,0.0,43,0.00,CLR,SCT,0.00,WeatherDisplay:10.37,2013-03-31 06:05:00,
2013-03-31 02:10:00,38.7,18.1,29.79,NNE,20,0.0,0.0,43,0.00,CLR,SCT,0.00,WeatherDisplay:10.37,2013-03-31 06:10:00,
2013-03-31 02:15:00,38.3,18.8,29.80,NNE,20,0.9,1.1,45,0.00,CLR,SCT,0.00,WeatherDisplay:10.37,2013-03-31 06:15:00,
2013-03-31 02:20:00,37.7,18.2,29.80,NNE,20,0.0,0.0,45,0.00,CLR,SCT,0.00,WeatherDisplay:10.37,2013-03-31 06:20:00,
2013-03-31 02:25:00,37.6,18.2,29.79,NNE,20,0.3,1.1,45,0.00,CLR,SCT,0.00,WeatherDisplay:10.37,2013-03-31 06:25:00,
2013-03-31 02:30:00,37.5,18.1,29.79,NNE,20,0.0,0.0,45,0.00,CLR,SCT,0.00,WeatherDisplay:10.37,2013-03-31 06:30:00,
2013-03-31 02:35:00,37.5,18.1,29.79,NNE,20,0.0,0.0,45,0.00,CLR,SCT,0.00,WeatherDisplay:10.37,2013-03-31 06:35:00,
2013-03-31 02:40:00,37.3,18.4,29.79,NNE,20,0.0,0.0,46,0.00,CLR,SCT,0.00,WeatherDisplay:10.37,2013-03-31 06:40:00,
2013-03-31 02:45:00,37.4,18.0,29.79,NNE,20,0.0,0.0,45,0.00,CLR,SCT,0.00,WeatherDisplay:10.37,2013-03-31 06:45:00,
2013-03-31 02:50:00,37.3,17.9,29.78,NNE,20,0.7,1.1,45,0.00,CLR,SCT,0.00,WeatherDisplay:10.37,2013-03-31 06:50:00,
2013-03-31 02:55:00,37.3,17.9,29.78,NNE,20,0.0,1.1,45,0.00,CLR,SCT,0.00,WeatherDisplay:10.37,2013-03-31 06:55:00,
2013-03-31 03:00:00,37.4,18.0,29.78,NNE,20,0.0,0.0,45,0.00,CLR,SCT,0.00,WeatherDisplay:10.37,2013-03-31 07:00:00,
2013-03-31 03:05:00,37.5,18.1,29.78,NNE,20,0.0,0.0,45,0.00,CLR,SCT,0.00,WeatherDisplay:10.37,2013-03-31 07:05:00,
2013-03-31 03:10:00,37.5,18.1,29.79,NNE,20,0.0,0.0,45,0.00,CLR,SCT,0.00,WeatherDisplay:10.37,2013-03-31 07:10:00,
2013-03-31 03:15:00,37.6,18.2,29.79,NNE,20,0.0,0.0,45,0.00,CLR,SCT,0.00,WeatherDisplay:10.37,2013-03-31 07:15:00,
2013-03-31 03:20:00,37.6,18.2,29.79,NNE,20,0.0,0.0,45,0.00,CLR,SCT,0.00,WeatherDisplay:10.37,2013-03-31 07:20:00,
2013-03-31 03:25:00,37.4,18.0,29.79,NNE,20,0.0,0.0,45,0.00,CLR,SCT,0.00,WeatherDisplay:10.37,2013-03-31 07:25:00,
2013-03-31 03:30:00,37.3,18.4,29.79,NNE,20,0.0,0.0,46,0.00,CLR,SCT,0.00,WeatherDisplay:10.37,2013-03-31 07:30:00,
2013-03-31 03:35:00,37.3,18.4,29.79,NNE,20,0.3,1.1,46,0.00,CLR,SCT,0.00,WeatherDisplay:10.37,2013-03-31 07:35:00,
2013-03-31 03:40:00,37.2,18.3,29.79,NNE,20,0.0,0.0,46,0.00,CLR,SCT,0.00,WeatherDisplay:10.37,2013-03-31 07:40:00,
2013-03-31 03:45:00,37.1,18.7,29.79,NNE,20,0.5,1.1,47,0.00,CLR,SCT,0.00,WeatherDisplay:10.37,2013-03-31 07:45:00,
2013-03-31 03:50:00,36.9,18.5,29.79,NNE,20,0.3,1.1,47,0.00,CLR,SCT,0.00,WeatherDisplay:10.37,2013-03-31 07:50:00,
2013-03-31 03:55:00,36.8,18.4,29.78,NNE,20,0.0,0.0,47,0.00,CLR,SCT,0.00,WeatherDisplay:10.37,2013-03-31 07:55:00,
2013-03-31 04:00:00,36.9,19.0,29.78,NNE,20,0.0,0.0,48,0.00,CLR,SCT,0.00,WeatherDisplay:10.37,2013-03-31 08:00:00,
2013-03-31 04:05:00,37.0,19.1,29.78,NNE,20,0.0,0.0,48,0.00,CLR,SCT,0.00,WeatherDisplay:10.37,2013-03-31 08:05:00,
2013-03-31 04:10:00,36.8,18.9,29.78,NNE,20,0.0,0.0,48,0.00,CLR,SCT,0.00,WeatherDisplay:10.37,2013-03-31 08:10:00,
2013-03-31 04:15:00,36.7,19.3,29.78,NNE,20,0.7,1.1,49,0.00,CLR,SCT,0.00,WeatherDisplay:10.37,2013-03-31 08:15:00,
2013-03-31 04:20:00,36.7,19.3,29.78,NNE,20,0.0,0.0,49,0.00,CLR,SCT,0.00,WeatherDisplay:10.37,2013-03-31 08:20:00,
2013-03-31 04:25:00,36.7,19.3,29.78,NNE,20,0.0,0.0,49,0.00,CLR,SCT,0.00,WeatherDisplay:10.37,2013-03-31 08:25:00,
2013-03-31 04:30:00,36.8,19.4,29.78,NNE,20,0.0,0.0,49,0.00,CLR,SCT,0.00,WeatherDisplay:10.37,2013-03-31 08:30:00,
2013-03-31 04:35:00,36.6,19.7,29.78,NNE,20,0.1,2.3,50,0.00,CLR,SCT,0.00,WeatherDisplay:10.37,2013-03-31 08:35:00,
2013-03-31 04:40:00,36.4,19.0,29.78,NNE,20,0.0,0.0,49,0.00,CLR,SCT,0.00,WeatherDisplay:10.37,2013-03-31 08:40:00,
2013-03-31 04:45:00,36.4,19.0,29.78,NNE,20,0.0,0.0,49,0.00,CLR,SCT,0.00,WeatherDisplay:10.37,2013-03-31 08:45:00,
2013-03-31 04:50:00,36.3,18.9,29.78,NNE,20,0.0,0.0,49,0.00,CLR,SCT,0.00,WeatherDisplay:10.37,2013-03-31 08:50:00,
2013-03-31 04:55:00,36.4,19.0,29.78,NNE,20,0.6,1.1,49,0.00,CLR,SCT,0.00,WeatherDisplay:10.37,2013-03-31 08:55:00,
2013-03-31 05:00:00,36.5,18.6,29.78,NNE,20,0.6,1.1,48,0.00,CLR,SCT,0.00,WeatherDisplay:10.37,2013-03-31 09:00:00,
2013-03-31 05:05:00,36.6,18.7,29.78,NNE,20,0.2,1.1,48,0.00,CLR,SCT,0.00,WeatherDisplay:10.37,2013-03-31 09:05:00,
2013-03-31 05:10:00,36.3,19.4,29.78,NNE,20,0.6,1.1,50,0.00,CLR,SCT,0.00,WeatherDisplay:10.37,2013-03-31 09:10:00,
2013-03-31 05:15:00,36.0,18.7,29.78,NNE,20,0.5,1.1,49,0.00,CLR,SCT,0.00,WeatherDisplay:10.37,2013-03-31 09:15:00,
2013-03-31 05:20:00,36.1,18.8,29.78,NNE,20,0.5,1.1,49,0.00,CLR,SCT,0.00,WeatherDisplay:10.37,2013-03-31 09:20:00,
2013-03-31 05:25:00,36.2,18.9,29.78,NNE,20,0.4,2.3,49,0.00,CLR,SCT,0.00,WeatherDisplay:10.37,2013-03-31 09:25:00,
2013-03-31 05:30:00,36.2,18.9,29.78,NNE,20,0.6,1.1,49,0.00,CLR,SCT,0.00,WeatherDisplay:10.37,2013-03-31 09:30:00,
2013-03-31 05:35:00,35.6,18.8,29.77,NNE,21,0.7,1.1,50,0.00,CLR,SCT,0.00,WeatherDisplay:10.37,2013-03-31 09:35:00,
2013-03-31 05:40:00,35.7,18.9,29.77,NE,37,1.0,2.3,50,0.00,CLR,SCT,0.00,WeatherDisplay:10.37,2013-03-31 09:40:00,
2013-03-31 05:45:00,35.3,18.5,29.77,NE,44,0.4,1.1,50,0.00,CLR,SCT,0.00,WeatherDisplay:10.37,2013-03-31 09:45:00,
2013-03-31 05:50:00,35.5,18.7,29.77,NE,44,0.5,1.1,50,0.00,CLR,SCT,0.00,WeatherDisplay:10.37,2013-03-31 09:50:00,
2013-03-31 05:55:00,35.5,18.7,29.77,NE,44,0.1,1.1,50,0.00,CLR,SCT,0.00,WeatherDisplay:10.37,2013-03-31 09:55:00,
2013-03-31 06:00:00,36.1,18.8,29.77,NE,44,0.4,1.1,49,0.00,CLR,SCT,0.00,WeatherDisplay:10.37,2013-03-31 10:00:00,
2013-03-31 06:05:00,36.2,19.3,29.77,NE,44,0.2,1.1,50,0.00,CLR,SCT,0.00,WeatherDisplay:10.37,2013-03-31 10:05:00,
2013-03-31 06:10:00,35.9,19.0,29.77,NE,45,0.0,0.0,50,0.00,CLR,SCT,0.00,WeatherDisplay:10.37,2013-03-31 10:10:00,
2013-03-31 06:15:00,35.7,18.9,29.77,NE,44,0.0,0.0,50,0.00,CLR,SCT,0.00,WeatherDisplay:10.37,2013-03-31 10:15:00,
2013-03-31 06:20:00,35.6,18.8,29.77,NE,45,0.2,1.1,50,0.00,CLR,SCT,0.00,WeatherDisplay:10.37,2013-03-31 10:20:00,
2013-03-31 06:25:00,35.4,18.6,29.77,NE,44,0.0,1.1,50,0.00,CLR,SCT,0.00,WeatherDisplay:10.37,2013-03-31 10:25:00,
2013-03-31 06:30:00,35.3,18.5,29.77,NE,44,0.4,1.1,50,0.00,CLR,SCT,0.00,WeatherDisplay:10.37,2013-03-31 10:30:00,
2013-03-31 06:35:00,35.4,19.0,29.76,NE,45,0.0,1.1,51,0.00,CLR,SCT,0.00,WeatherDisplay:10.37,2013-03-31 10:35:00,
2013-03-31 06:40:00,35.2,19.3,29.76,NE,45,0.8,2.3,52,0.00,CLR,SCT,0.00,WeatherDisplay:10.37,2013-03-31 10:40:00,
2013-03-31 06:45:00,34.8,18.9,29.77,NE,45,0.0,0.0,52,0.00,CLR,SCT,0.00,WeatherDisplay:10.37,2013-03-31 10:45:00,
2013-03-31 06:50:00,34.8,19.4,29.77,NE,45,0.3,1.1,53,0.00,CLR,SCT,0.00,WeatherDisplay:10.37,2013-03-31 10:50:00,
2013-03-31 06:55:00,34.6,20.5,29.76,NE,45,0.0,1.1,56,0.00,CLR,SCT,0.00,WeatherDisplay:10.37,2013-03-31 10:55:00,
2013-03-31 07:00:00,34.6,19.2,29.76,NE,45,0.2,1.1,53,0.00,CLR,SCT,0.00,WeatherDisplay:10.37,2013-03-31 11:00:00,
2013-03-31 07:05:00,34.8,19.4,29.76,NE,45,0.2,1.1,53,0.00,CLR,SCT,0.00,WeatherDisplay:10.37,2013-03-31 11:05:00,
2013-03-31 07:10:00,35.0,19.6,29.76,NE,45,0.0,1.1,53,0.00,CLR,SCT,0.00,WeatherDisplay:10.37,2013-03-31 11:10:00,
2013-03-31 07:15:00,35.2,19.8,29.76,NE,45,0.0,0.0,53,0.00,CLR,SCT,0.00,WeatherDisplay:10.37,2013-03-31 11:15:00,
2013-03-31 07:20:00,35.3,19.9,29.76,NE,45,0.0,0.0,53,0.00,CLR,SCT,0.00,WeatherDisplay:10.37,2013-03-31 11:20:00,
2013-03-31 07:25:00,35.3,20.3,29.76,NE,45,0.0,0.0,54,0.00,CLR,SCT,0.00,WeatherDisplay:10.37,2013-03-31 11:25:00,
2013-03-31 07:30:00,35.4,22.1,29.76,NE,45,0.0,0.0,58,0.00,CLR,SCT,0.00,WeatherDisplay:10.37,2013-03-31 11:30:00,
2013-03-31 07:35:00,35.4,20.8,29.76,NE,45,0.0,0.0,55,0.00,CLR,SCT,0.00,WeatherDisplay:10.37,2013-03-31 11:35:00,
2013-03-31 07:40:00,35.5,23.4,29.77,NE,45,0.0,0.0,61,0.00,CLR,SCT,0.00,WeatherDisplay:10.37,2013-03-31 11:40:00,
2013-03-31 07:45:00,35.5,23.0,29.76,NE,45,0.0,0.0,60,0.00,CLR,SCT,0.00,WeatherDisplay:10.37,2013-03-31 11:45:00,
2013-03-31 07:50:00,35.5,23.8,29.76,NE,45,0.0,0.0,62,0.00,CLR,SCT,0.00,WeatherDisplay:10.37,2013-03-31 11:50:00,
2013-03-31 07:55:00,35.6,23.9,29.76,SW,219,0.0,0.0,62,0.00,CLR,SCT,0.00,WeatherDisplay:10.37,2013-03-31 11:55:00,
2013-03-31 08:00:00,35.7,23.6,29.76,SW,219,0.0,0.0,61,0.00,CLR,SCT,0.00,WeatherDisplay:10.37,2013-03-31 12:00:00,
2013-03-31 08:05:00,35.8,23.7,29.76,SW,219,0.0,0.0,61,0.00,CLR,SCT,0.00,WeatherDisplay:10.37,2013-03-31 12:05:00,
2013-03-31 08:10:00,36.1,23.9,29.76,SW,219,0.0,0.0,61,0.00,CLR,SCT,0.00,WeatherDisplay:10.37,2013-03-31 12:10:00,
2013-03-31 08:15:00,36.5,24.7,29.76,SW,219,0.0,0.0,62,0.00,CLR,SCT,0.00,WeatherDisplay:10.37,2013-03-31 12:15:00,
2013-03-31 08:20:00,36.8,23.4,29.76,SW,219,0.0,0.0,58,0.00,CLR,SCT,0.00,WeatherDisplay:10.37,2013-03-31 12:20:00,
2013-03-31 08:25:00,37.0,23.2,29.76,SW,219,0.0,0.0,57,0.00,CLR,SCT,0.00,WeatherDisplay:10.37,2013-03-31 12:25:00,
2013-03-31 08:30:00,37.4,23.5,29.76,SW,219,0.0,0.0,57,0.00,CLR,SCT,0.00,WeatherDisplay:10.37,2013-03-31 12:30:00,
2013-03-31 08:35:00,37.9,24.0,29.76,SW,219,0.0,0.0,57,0.00,CLR,SCT,0.00,WeatherDisplay:10.37,2013-03-31 12:35:00,
2013-03-31 08:40:00,38.3,24.8,29.76,SW,219,0.0,0.0,58,0.00,CLR,SCT,0.00,WeatherDisplay:10.37,2013-03-31 12:40:00,
2013-03-31 08:45:00,38.8,26.1,29.76,SW,219,0.0,0.0,60,0.00,CLR,SCT,0.00,WeatherDisplay:10.37,2013-03-31 12:45:00,
2013-03-31 08:50:00,39.2,26.9,29.76,SW,219,0.0,0.0,61,0.00,CLR,SCT,0.00,WeatherDisplay:10.37,2013-03-31 12:50:00,
2013-03-31 08:55:00,39.7,25.7,29.76,SW,219,1.0,1.1,57,0.00,CLR,SCT,0.00,WeatherDisplay:10.37,2013-03-31 12:55:00,
2013-03-31 09:00:00,40.1,26.9,29.76,South,188,0.5,2.3,59,0.00,CLR,SCT,0.00,WeatherDisplay:10.37,2013-03-31 13:00:00,
2013-03-31 09:05:00,41.1,24.8,29.76,SE,129,0.6,3.5,52,0.00,CLR,SCT,0.00,WeatherDisplay:10.37,2013-03-31 13:05:00,
2013-03-31 09:10:00,42.0,25.6,29.75,SE,134,0.5,2.3,52,0.00,CLR,SCT,0.00,WeatherDisplay:10.37,2013-03-31 13:10:00,
2013-03-31 09:15:00,42.7,25.8,29.75,SE,134,0.2,2.3,51,0.00,CLR,SCT,0.00,WeatherDisplay:10.37,2013-03-31 13:15:00,
2013-03-31 09:20:00,43.4,24.5,29.75,SE,127,1.1,3.5,47,0.00,CLR,SCT,0.00,WeatherDisplay:10.37,2013-03-31 13:20:00,
2013-03-31 09:25:00,44.1,25.6,29.75,SE,128,1.6,2.3,48,0.00,CLR,SCT,0.00,WeatherDisplay:10.37,2013-03-31 13:25:00,
2013-03-31 09:30:00,44.6,26.6,29.75,SE,129,0.5,3.5,49,0.00,CLR,SCT,0.00,WeatherDisplay:10.37,2013-03-31 13:30:00,
2013-03-31 09:35:00,45.0,26.0,29.75,SE,145,1.5,2.3,47,0.00,CLR,SCT,0.00,WeatherDisplay:10.37,2013-03-31 13:35:00,
2013-03-31 09:40:00,45.3,26.2,29.75,SW,229,0.7,2.3,47,0.00,CLR,SCT,0.00,WeatherDisplay:10.37,2013-03-31 13:40:00,
2013-03-31 09:45:00,44.8,26.3,29.75,West,261,0.4,2.3,48,0.00,CLR,SCT,0.00,WeatherDisplay:10.37,2013-03-31 13:45:00,
2013-03-31 09:50:00,44.9,26.9,29.75,West,260,0.3,2.3,49,0.00,CLR,SCT,0.00,WeatherDisplay:10.37,2013-03-31 13:50:00,
2013-03-31 09:55:00,45.8,26.7,29.75,South,180,0.8,1.1,47,0.00,CLR,SCT,0.00,WeatherDisplay:10.37,2013-03-31 13:55:00,
2013-03-31 10:00:00,46.4,26.7,29.75,South,184,1.5,2.3,46,0.00,CLR,SCT,0.00,WeatherDisplay:10.37,2013-03-31 14:00:00,
2013-03-31 10:05:00,46.7,27.0,29.75,SE,144,0.5,3.5,46,0.00,CLR,SCT,0.00,WeatherDisplay:10.37,2013-03-31 14:05:00,
2013-03-31 10:10:00,47.0,26.7,29.75,SSE,165,1.1,3.5,45,0.00,CLR,SCT,0.00,WeatherDisplay:10.37,2013-03-31 14:10:00,
2013-03-31 10:15:00,47.4,27.1,29.75,SSE,163,0.6,2.3,45,0.00,CLR,SCT,0.00,WeatherDisplay:10.37,2013-03-31 14:15:00,
2013-03-31 10:20:00,47.7,27.4,29.75,South,176,1.4,2.3,45,0.00,CLR,SCT,0.00,WeatherDisplay:10.37,2013-03-31 14:20:00,
2013-03-31 10:25:00,47.8,26.9,29.75,SE,144,3.1,5.8,44,0.00,CLR,SCT,0.00,WeatherDisplay:10.37,2013-03-31 14:25:00,
2013-03-31 10:30:00,47.8,26.9,29.75,SE,126,3.4,5.8,44,0.00,CLR,SCT,0.00,WeatherDisplay:10.37,2013-03-31 14:30:00,
2013-03-31 10:35:00,48.1,27.2,29.75,SSW,194,1.9,5.8,44,0.00,CLR,SCT,0.00,WeatherDisplay:10.37,2013-03-31 14:35:00,
2013-03-31 10:40:00,48.3,27.4,29.75,SW,215,1.3,3.5,44,0.00,CLR,SCT,0.00,WeatherDisplay:10.37,2013-03-31 14:40:00,
2013-03-31 10:45:00,49.0,28.0,29.75,SSE,155,2.9,3.5,44,0.00,CLR,SCT,0.00,WeatherDisplay:10.37,2013-03-31 14:45:00,
2013-03-31 10:50:00,49.5,28.5,29.75,SSE,149,1.3,4.6,44,0.00,CLR,SCT,0.00,WeatherDisplay:10.37,2013-03-31 14:50:00,
2013-03-31 10:55:00,50.0,28.9,29.74,SSE,150,2.4,4.6,44,0.00,CLR,SCT,0.00,WeatherDisplay:10.37,2013-03-31 14:55:00,
2013-03-31 11:00:00,50.5,28.2,29.74,SSE,159,1.9,4.6,42,0.00,CLR,SCT,0.00,WeatherDisplay:10.37,2013-03-31 15:00:00,
2013-03-31 11:05:00,51.1,28.8,29.74,SE,128,2.8,5.0,42,0.00,CLR,SCT,0.00,WeatherDisplay:10.37,2013-03-31 15:05:00,
2013-03-31 11:10:00,51.4,28.5,29.74,SSE,153,1.6,5.8,41,0.00,CLR,SCT,0.00,WeatherDisplay:10.37,2013-03-31 15:10:00,
2013-03-31 11:15:00,52.0,29.6,29.74,SSW,198,0.8,3.5,42,0.00,CLR,SCT,0.00,WeatherDisplay:10.37,2013-03-31 15:15:00,
2013-03-31 11:20:00,52.0,28.4,29.74,ESE,121,3.1,6.0,40,0.00,CLR,SCT,0.00,WeatherDisplay:10.37,2013-03-31 15:20:00,
2013-03-31 11:25:00,51.5,28.6,29.74,SSE,159,2.7,7.0,41,0.00,CLR,SCT,0.00,WeatherDisplay:10.37,2013-03-31 15:25:00,
2013-03-31 11:30:00,51.8,28.2,29.73,South,174,2.2,4.0,40,0.00,CLR,SCT,0.00,WeatherDisplay:10.37,2013-03-31 15:30:00,
2013-03-31 11:35:00,52.1,27.2,29.73,South,184,5.1,9.2,38,0.00,CLR,SCT,0.00,WeatherDisplay:10.37,2013-03-31 15:35:00,
2013-03-31 11:40:00,51.9,26.4,29.72,SE,132,4.1,8.1,37,0.00,CLR,SCT,0.00,WeatherDisplay:10.37,2013-03-31 15:40:00,
2013-03-31 11:45:00,52.2,25.3,29.73,SE,126,5.4,9.2,35,0.00,CLR,SCT,0.00,WeatherDisplay:10.37,2013-03-31 15:45:00,
2013-03-31 11:50:00,52.0,25.8,29.72,SSE,153,5.1,8.1,36,0.00,CLR,SCT,0.00,WeatherDisplay:10.37,2013-03-31 15:50:00,
2013-03-31 11:55:00,52.1,25.9,29.72,South,169,2.2,5.8,36,0.00,CLR,SCT,0.00,WeatherDisplay:10.37,2013-03-31 15:55:00,
2013-03-31 12:00:00,52.5,26.3,29.71,ESE,107,3.9,6.0,36,0.00,CLR,SCT,0.00,WeatherDisplay:10.37,2013-03-31 16:00:00,
2013-03-31 12:05:00,53.1,25.4,29.71,SE,133,5.6,5.8,34,0.00,CLR,SCT,0.00,WeatherDisplay:10.37,2013-03-31 16:05:00,
2013-03-31 12:10:00,52.6,25.7,29.71,South,178,4.9,6.9,35,0.00,CLR,SCT,0.00,WeatherDisplay:10.37,2013-03-31 16:10:00,
2013-03-31 12:15:00,52.4,25.5,29.72,SSE,149,5.2,8.1,35,0.00,CLR,SCT,0.00,WeatherDisplay:10.37,2013-03-31 16:15:00,
2013-03-31 12:20:00,52.5,25.6,29.71,SW,229,6.4,9.2,35,0.00,CLR,SCT,0.00,WeatherDisplay:10.37,2013-03-31 16:20:00,
2013-03-31 12:25:00,52.4,26.2,29.71,ESE,121,4.1,8.0,36,0.00,CLR,SCT,0.00,WeatherDisplay:10.37,2013-03-31 16:25:00,
2013-03-31 12:30:00,52.6,27.0,29.71,South,172,2.7,7.0,37,0.00,CLR,SCT,0.00,WeatherDisplay:10.37,2013-03-31 16:30:00,
2013-03-31 12:35:00,52.4,25.5,29.71,South,179,5.2,8.1,35,0.00,CLR,SCT,0.00,WeatherDisplay:10.37,2013-03-31 16:35:00,
2013-03-31 12:40:00,52.5,25.6,29.71,South,186,5.6,8.1,35,0.00,CLR,SCT,0.00,WeatherDisplay:10.37,2013-03-31 16:40:00,
2013-03-31 12:45:00,52.9,27.3,29.70,South,175,3.1,8.1,37,0.00,CLR,SCT,0.00,WeatherDisplay:10.37,2013-03-31 16:45:00,
2013-03-31 12:50:00,52.8,26.6,29.70,SSW,207,4.1,8.1,36,0.00,CLR,SCT,0.00,WeatherDisplay:10.37,2013-03-31 16:50:00,
2013-03-31 12:55:00,52.7,27.1,29.69,SW,223,4.6,5.8,37,0.00,CLR,SCT,0.00,WeatherDisplay:10.37,2013-03-31 16:55:00,
2013-03-31 13:00:00,53.2,27.6,29.69,WSW,248,3.0,3.5,37,0.00,CLR,SCT,0.00,WeatherDisplay:10.37,2013-03-31 17:00:00,
2013-03-31 13:05:00,53.2,27.6,29.69,SE,136,5.8,9.2,37,0.00,CLR,SCT,0.00,WeatherDisplay:10.37,2013-03-31 17:05:00,
2013-03-31 13:10:00,53.2,27.6,29.68,SSE,151,4.0,5.8,37,0.00,CLR,SCT,0.00,WeatherDisplay:10.37,2013-03-31 17:10:00,
2013-03-31 13:15:00,53.2,27.6,29.68,SE,128,5.6,6.9,37,0.00,CLR,SCT,0.00,WeatherDisplay:10.37,2013-03-31 17:15:00,
2013-03-31 13:20:00,53.0,26.7,29.68,SSE,163,3.6,8.1,36,0.00,CLR,SCT,0.00,WeatherDisplay:10.37,2013-03-31 17:20:00,
2013-03-31 13:25:00,53.2,26.9,29.68,SSE,152,6.4,9.2,36,0.00,CLR,SCT,0.00,WeatherDisplay:10.37,2013-03-31 17:25:00,
2013-03-31 13:30:00,52.7,26.5,29.68,ESE,107,6.2,10.4,36,0.00,CLR,SCT,0.00,WeatherDisplay:10.37,2013-03-31 17:30:00,
2013-03-31 13:35:00,52.1,25.3,29.67,ESE,123,6.4,9.2,35,0.00,CLR,SCT,0.00,WeatherDisplay:10.37,2013-03-31 17:35:00,
2013-03-31 13:40:00,51.6,25.5,29.67,ESE,110,4.5,9.2,36,0.00,CLR,SCT,0.00,WeatherDisplay:10.37,2013-03-31 17:40:00,
2013-03-31 13:45:00,51.9,26.4,29.67,SE,144,3.5,6.9,37,0.00,CLR,SCT,0.00,WeatherDisplay:10.37,2013-03-31 17:45:00,
2013-03-31 13:50:00,52.2,25.3,29.66,SSE,148,3.7,6.9,35,0.00,CLR,SCT,0.00,WeatherDisplay:10.37,2013-03-31 17:50:00,
2013-03-31 13:55:00,52.2,26.7,29.66,SSE,161,1.6,4.0,37,0.00,CLR,SCT,0.00,WeatherDisplay:10.37,2013-03-31 17:55:00,
2013-03-31 14:00:00,52.8,27.2,29.66,ESE,109,3.9,10.0,37,0.00,CLR,SCT,0.00,WeatherDisplay:10.37,2013-03-31 18:00:00,
2013-03-31 14:05:00,52.2,26.7,29.65,South,185,3.5,6.9,37,0.00,CLR,SCT,0.00,WeatherDisplay:10.37,2013-03-31 18:05:00,
2013-03-31 14:10:00,52.1,27.2,29.65,South,178,3.9,8.1,38,0.00,CLR,SCT,0.00,WeatherDisplay:10.37,2013-03-31 18:10:00,
2013-03-31 14:15:00,52.2,27.3,29.65,SE,130,5.4,8.1,38,0.00,CLR,SCT,0.00,WeatherDisplay:10.37,2013-03-31 18:15:00,
2013-03-31 14:20:00,52.2,28.6,29.64,ESE,110,2.8,5.8,40,0.00,CLR,SCT,0.00,WeatherDisplay:10.37,2013-03-31 18:20:00,
2013-03-31 14:25:00,52.6,28.3,29.64,SSE,159,5.3,6.9,39,0.00,CLR,SCT,0.00,WeatherDisplay:10.37,2013-03-31 18:25:00,
2013-03-31 14:30:00,52.4,28.8,29.63,SSE,165,5.0,9.2,40,0.00,CLR,SCT,0.00,WeatherDisplay:10.37,2013-03-31 18:30:00,
2013-03-31 14:35:00,52.3,29.3,29.63,SE,128,4.3,8.1,41,0.00,CLR,SCT,0.00,WeatherDisplay:10.37,2013-03-31 18:35:00,
2013-03-31 14:40:00,52.2,29.2,29.63,South,169,6.1,9.2,41,0.00,CLR,SCT,0.00,WeatherDisplay:10.37,2013-03-31 18:40:00,
2013-03-31 14:45:00,51.7,29.3,29.63,SSE,162,4.5,5.8,42,0.00,CLR,SCT,0.00,WeatherDisplay:10.37,2013-03-31 18:45:00,
2013-03-31 14:50:00,51.6,28.6,29.63,SE,127,3.3,5.8,41,0.00,CLR,SCT,0.00,WeatherDisplay:10.37,2013-03-31 18:50:00,
2013-03-31 14:55:00,51.4,28.5,29.63,SE,131,3.7,6.9,41,0.00,CLR,SCT,0.00,WeatherDisplay:10.37,2013-03-31 18:55:00,
2013-03-31 15:00:00,51.1,28.8,29.63,SSE,163,5.4,6.9,42,0.00,CLR,SCT,0.00,WeatherDisplay:10.37,2013-03-31 19:00:00,
2013-03-31 15:05:00,50.8,28.5,29.63,ESE,111,7.0,10.0,42,0.00,CLR,SCT,0.00,WeatherDisplay:10.37,2013-03-31 19:05:00,
2013-03-31 15:10:00,50.4,28.7,29.63,SSE,164,4.8,8.1,43,0.00,CLR,SCT,0.00,WeatherDisplay:10.37,2013-03-31 19:10:00,
2013-03-31 15:15:00,50.2,29.1,29.63,SE,138,6.8,10.4,44,0.00,CLR,SCT,0.00,WeatherDisplay:10.37,2013-03-31 19:15:00,
2013-03-31 15:20:00,50.0,28.9,29.63,SE,135,4.4,7.0,44,0.00,CLR,SCT,0.00,WeatherDisplay:10.37,2013-03-31 19:20:00,
2013-03-31 15:25:00,49.9,28.8,29.63,ESE,123,2.8,5.8,44,0.00,CLR,SCT,0.00,WeatherDisplay:10.37,2013-03-31 19:25:00,
2013-03-31 15:30:00,49.9,28.8,29.62,SE,128,4.0,6.9,44,0.00,CLR,SCT,0.00,WeatherDisplay:10.37,2013-03-31 19:30:00,
2013-03-31 15:35:00,49.7,28.6,29.62,SE,136,7.0,8.1,44,0.00,CLR,SCT,0.00,WeatherDisplay:10.37,2013-03-31 19:35:00,
2013-03-31 15:40:00,49.5,29.0,29.62,SE,145,4.0,7.0,45,0.00,CLR,SCT,0.00,WeatherDisplay:10.37,2013-03-31 19:40:00,
2013-03-31 15:45:00,49.4,28.9,29.62,ESE,117,5.8,9.2,45,0.00,CLR,SCT,0.00,WeatherDisplay:10.37,2013-03-31 19:45:00,
2013-03-31 15:50:00,49.3,28.8,29.62,SE,136,6.1,9.2,45,0.00,CLR,SCT,0.00,WeatherDisplay:10.37,2013-03-31 19:50:00,
2013-03-31 15:55:00,49.0,29.1,29.62,SSE,155,4.4,5.8,46,0.00,CLR,SCT,0.00,WeatherDisplay:10.37,2013-03-31 19:55:00,
2013-03-31 16:00:00,48.9,28.5,29.61,SSE,155,4.6,6.0,45,0.00,CLR,SCT,0.00,WeatherDisplay:10.37,2013-03-31 20:00:00,
2013-03-31 16:05:00,48.8,29.4,29.61,SE,132,3.5,5.0,47,0.00,CLR,SCT,0.00,WeatherDisplay:10.37,2013-03-31 20:05:00,
2013-03-31 16:10:00,48.7,30.4,29.61,SE,132,6.0,6.9,49,0.00,CLR,SCT,0.00,WeatherDisplay:10.37,2013-03-31 20:10:00,
2013-03-31 16:15:00,48.6,30.8,29.61,SSE,149,3.1,8.1,50,0.00,CLR,SCT,0.00,WeatherDisplay:10.37,2013-03-31 20:15:00,
2013-03-31 16:20:00,48.5,31.2,29.61,SSE,150,5.3,5.8,51,0.00,CLR,SCT,0.00,WeatherDisplay:10.37,2013-03-31 20:20:00,
2013-03-31 16:25:00,48.3,31.5,29.61,ESE,116,4.6,8.1,52,0.00,CLR,SCT,0.00,WeatherDisplay:10.37,2013-03-31 20:25:00,
2013-03-31 16:30:00,48.0,32.1,29.60,SSE,153,4.8,5.8,54,0.00,CLR,SCT,0.00,WeatherDisplay:10.37,2013-03-31 20:30:00,
2013-03-31 16:35:00,47.8,32.4,29.60,SE,142,4.3,6.9,55,0.00,CLR,SCT,0.00,WeatherDisplay:10.37,2013-03-31 20:35:00,
2013-03-31 16:40:00,47.8,32.9,29.60,ESE,110,2.3,4.6,56,0.00,CLR,SCT,0.00,WeatherDisplay:10.37,2013-03-31 20:40:00,
2013-03-31 16:45:00,47.8,32.9,29.59,SE,126,3.5,6.0,56,0.00,CLR,SCT,0.00,WeatherDisplay:10.37,2013-03-31 20:45:00,
2013-03-31 16:50:00,47.8,32.9,29.59,SE,136,3.1,5.8,56,0.00,CLR,SCT,0.00,WeatherDisplay:10.37,2013-03-31 20:50:00,
2013-03-31 16:55:00,47.8,32.9,29.59,SE,134,3.4,3.5,56,0.00,CLR,SCT,0.00,WeatherDisplay:10.37,2013-03-31 20:55:00,
2013-03-31 17:00:00,47.7,32.3,29.58,ESE,112,3.2,4.6,55,0.00,CLR,SCT,0.00,WeatherDisplay:10.37,2013-03-31 21:00:00,
2013-03-31 17:05:00,47.7,32.3,29.58,SE,127,3.2,4.6,55,0.00,CLR,SCT,0.00,WeatherDisplay:10.37,2013-03-31 21:05:00,
2013-03-31 17:10:00,47.6,32.2,29.58,SE,126,3.7,8.1,55,0.00,CLR,SCT,0.00,WeatherDisplay:10.37,2013-03-31 21:10:00,
2013-03-31 17:15:00,47.6,32.2,29.57,NE,53,1.6,3.5,55,0.00,CLR,SCT,0.00,WeatherDisplay:10.37,2013-03-31 21:15:00,
2013-03-31 17:20:00,47.4,32.0,29.57,East,98,2.4,5.8,55,0.00,CLR,SCT,0.00,WeatherDisplay:10.37,2013-03-31 21:20:00,
2013-03-31 17:25:00,47.3,31.9,29.57,SE,131,2.7,4.6,55,0.00,CLR,SCT,0.00,WeatherDisplay:10.37,2013-03-31 21:25:00,
2013-03-31 17:30:00,47.3,31.9,29.57,ESE,122,2.2,3.5,55,0.00,CLR,SCT,0.00,WeatherDisplay:10.37,2013-03-31 21:30:00,
2013-03-31 17:35:00,47.4,32.0,29.57,SE,141,1.8,3.5,55,0.00,CLR,SCT,0.00,WeatherDisplay:10.37,2013-03-31 21:35:00,
2013-03-31 17:40:00,47.5,32.1,29.57,SE,140,2.0,4.6,55,0.00,CLR,SCT,0.00,WeatherDisplay:10.37,2013-03-31 21:40:00,
2013-03-31 17:45:00,47.7,32.3,29.57,SE,142,5.3,5.8,55,0.00,CLR,SCT,0.00,WeatherDisplay:10.37,2013-03-31 21:45:00,
2013-03-31 17:50:00,47.8,32.4,29.57,SE,124,6.0,8.1,55,0.00,CLR,SCT,0.00,WeatherDisplay:10.37,2013-03-31 21:50:00,
2013-03-31 17:55:00,47.7,32.3,29.57,SSE,158,2.8,5.8,55,0.00,CLR,SCT,0.00,WeatherDisplay:10.37,2013-03-31 21:55:00,
2013-03-31 18:00:00,47.7,32.8,29.57,SSE,153,6.2,10.4,56,0.00,CLR,SCT,0.00,WeatherDisplay:10.37,2013-03-31 22:00:00,
2013-03-31 18:05:00,47.5,33.0,29.57,SE,125,4.8,9.2,57,0.00,CLR,SCT,0.00,WeatherDisplay:10.37,2013-03-31 22:05:00,
2013-03-31 18:10:00,47.4,33.8,29.57,SE,145,5.0,6.9,59,0.00,CLR,SCT,0.00,WeatherDisplay:10.37,2013-03-31 22:10:00,
2013-03-31 18:15:00,47.2,33.6,29.56,SSE,168,6.1,8.1,59,0.00,CLR,SCT,0.00,WeatherDisplay:10.37,2013-03-31 22:15:00,
2013-03-31 18:20:00,47.0,33.8,29.56,South,173,5.1,6.9,60,0.00,CLR,SCT,0.00,WeatherDisplay:10.37,2013-03-31 22:20:00,
2013-03-31 18:25:00,46.9,34.1,29.55,South,171,2.4,4.6,61,0.00,CLR,SCT,0.00,WeatherDisplay:10.37,2013-03-31 22:25:00,
2013-03-31 18:30:00,46.7,34.0,29.55,ESE,119,4.2,6.9,61,0.00,CLR,SCT,0.00,WeatherDisplay:10.37,2013-03-31 22:30:00,
2013-03-31 18:35:00,46.7,34.4,29.55,SE,140,1.6,4.6,62,0.00,CLR,SCT,0.00,WeatherDisplay:10.37,2013-03-31 22:35:00,
2013-03-31 18:40:00,46.6,34.3,29.54,SE,133,2.6,3.5,62,0.00,CLR,SCT,0.00,WeatherDisplay:10.37,2013-03-31 22:40:00,
2013-03-31 18:45:00,46.5,35.0,29.55,ESE,110,1.9,4.6,64,0.00,CLR,SCT,0.00,WeatherDisplay:10.37,2013-03-31 22:45:00,
2013-03-31 18:50:00,46.4,35.3,29.54,SE,131,4.8,4.8,65,0.00,CLR,SCT,0.00,WeatherDisplay:10.37,2013-03-31 22:50:00,
2013-03-31 18:56:00,46.2,35.1,29.53,SE,135,3.4,8.1,65,0.00,CLR,SCT,0.00,WeatherDisplay:10.37,2013-03-31 22:56:00,
2013-03-31 19:01:00,46.0,35.3,29.53,SE,124,0.7,3.5,66,0.00,CLR,SCT,0.00,WeatherDisplay:10.37,2013-03-31 23:01:00,
2013-03-31 19:06:00,45.8,35.5,29.53,SE,136,0.7,2.3,67,0.00,CLR,SCT,0.00,WeatherDisplay:10.37,2013-03-31 23:06:00,
2013-03-31 19:11:00,45.6,35.6,29.52,ESE,109,1.0,5.0,68,0.00,CLR,SCT,0.00,WeatherDisplay:10.37,2013-03-31 23:11:00,
2013-03-31 19:16:00,45.6,35.3,29.51,ESE,121,3.2,5.8,67,0.00,CLR,SCT,0.00,WeatherDisplay:10.37,2013-03-31 23:16:00,
2013-03-31 19:21:00,45.6,35.6,29.51,ENE,65,0.4,1.1,68,0.00,CLR,SCT,0.00,WeatherDisplay:10.37,2013-03-31 23:21:00,
2013-03-31 19:26:00,45.6,35.6,29.51,ESE,113,0.9,2.3,68,0.00,CLR,SCT,0.00,WeatherDisplay:10.37,2013-03-31 23:26:00,
2013-03-31 19:31:00,45.5,35.5,29.50,ESE,111,2.3,3.5,68,0.00,CLR,SCT,0.00,WeatherDisplay:10.37,2013-03-31 23:31:00,
2013-03-31 19:36:00,45.4,35.5,29.50,ESE,119,3.6,4.6,68,0.00,CLR,SCT,0.00,WeatherDisplay:10.37,2013-03-31 23:36:00,
2013-03-31 19:41:00,45.4,35.5,29.49,ESE,117,1.3,4.6,68,0.00,CLR,SCT,0.00,WeatherDisplay:10.37,2013-03-31 23:41:00,
2013-03-31 19:46:00,45.3,35.7,29.49,SE,131,1.8,5.0,69,0.00,CLR,SCT,0.00,WeatherDisplay:10.37,2013-03-31 23:46:00,
2013-03-31 19:51:00,45.3,35.7,29.49,SE,125,2.1,4.0,69,0.00,CLR,SCT,0.00,WeatherDisplay:10.37,2013-03-31 23:51:00,
2013-03-31 19:56:00,45.2,35.6,29.48,SSE,152,0.8,3.5,69,0.00,CLR,SCT,0.00,WeatherDisplay:10.37,2013-03-31 23:56:00,
2013-03-31 20:01:00,45.3,35.7,29.48,South,182,2.3,3.5,69,0.00,CLR,SCT,0.00,WeatherDisplay:10.37,2013-04-01 00:01:00,
2013-03-31 20:06:00,45.3,35.7,29.48,ESE,116,1.6,4.0,69,0.00,CLR,SCT,0.00,WeatherDisplay:10.37,2013-04-01 00:06:00,
2013-03-31 20:11:00,45.2,35.6,29.47,SE,142,0.6,2.3,69,0.00,CLR,SCT,0.00,WeatherDisplay:10.37,2013-04-01 00:11:00,
2013-03-31 20:16:00,45.2,35.6,29.47,ESE,119,2.4,5.8,69,0.00,CLR,SCT,0.00,WeatherDisplay:10.37,2013-04-01 00:16:00,
2013-03-31 20:21:00,45.2,36.0,29.46,SE,145,2.4,5.8,70,0.00,CLR,SCT,0.00,WeatherDisplay:10.37,2013-04-01 00:21:00,
2013-03-31 20:26:00,45.2,36.0,29.46,SSE,149,2.4,5.0,70,0.00,CLR,SCT,0.00,WeatherDisplay:10.37,2013-04-01 00:26:00,
2013-03-31 20:31:00,45.1,36.3,29.45,SSE,155,2.5,4.6,71,0.00,CLR,SCT,0.00,WeatherDisplay:10.37,2013-04-01 00:31:00,
2013-03-31 20:36:00,45.1,36.3,29.45,SSE,148,1.2,3.5,71,0.00,CLR,SCT,0.00,WeatherDisplay:10.37,2013-04-01 00:36:00,
2013-03-31 20:41:00,45.1,36.6,29.44,SE,132,1.9,3.5,72,0.00,CLR,SCT,0.00,WeatherDisplay:10.37,2013-04-01 00:41:00,
2013-03-31 20:46:00,45.0,36.5,29.43,ESE,109,2.9,4.6,72,0.00,CLR,SCT,0.00,WeatherDisplay:10.37,2013-04-01 00:46:00,
2013-03-31 20:51:00,45.0,36.9,29.43,SE,135,3.1,7.0,73,0.00,CLR,SCT,0.00,WeatherDisplay:10.37,2013-04-01 00:51:00,
2013-03-31 20:56:00,45.1,37.3,29.43,ESE,106,4.7,8.1,74,0.00,CLR,SCT,0.00,WeatherDisplay:10.37,2013-04-01 00:56:00,
2013-03-31 21:01:00,45.1,37.3,29.43,SE,127,3.9,5.8,74,0.00,CLR,SCT,0.00,WeatherDisplay:10.37,2013-04-01 01:01:00,
2013-03-31 21:06:00,45.1,37.3,29.43,ESE,111,6.9,9.2,74,0.00,CLR,SCT,0.00,WeatherDisplay:10.37,2013-04-01 01:06:00,
2013-03-31 21:11:00,45.0,37.6,29.43,SSE,149,1.7,5.8,75,0.00,CLR,SCT,0.00,WeatherDisplay:10.37,2013-04-01 01:11:00,
2013-03-31 21:16:00,45.0,37.9,29.43,ENE,61,3.1,5.8,76,0.00,CLR,SCT,0.00,WeatherDisplay:10.37,2013-04-01 01:16:00,
2013-03-31 21:21:00,44.9,37.8,29.42,SE,132,3.1,5.0,76,0.00,CLR,SCT,0.00,WeatherDisplay:10.37,2013-04-01 01:21:00,
2013-03-31 21:26:00,44.8,38.0,29.43,SSE,155,3.3,4.6,77,0.00,CLR,SCT,0.00,WeatherDisplay:10.37,2013-04-01 01:26:00,
2013-03-31 21:31:00,44.8,38.0,29.43,East,96,3.0,9.2,77,0.00,CLR,SCT,0.00,WeatherDisplay:10.37,2013-04-01 01:31:00,
2013-03-31 21:36:00,44.6,37.8,29.43,SE,137,4.0,5.8,77,0.00,CLR,SCT,0.00,WeatherDisplay:10.37,2013-04-01 01:36:00,
2013-03-31 21:41:00,44.5,38.1,29.42,SE,128,2.8,4.6,78,0.00,CLR,SCT,0.00,WeatherDisplay:10.37,2013-04-01 01:41:00,
2013-03-31 21:46:00,44.3,38.2,29.42,SE,144,2.5,4.6,79,0.00,CLR,SCT,0.00,WeatherDisplay:10.37,2013-04-01 01:46:00,
2013-03-31 21:51:00,44.0,38.2,29.42,SE,133,1.9,3.5,80,0.00,CLR,SCT,0.00,WeatherDisplay:10.37,2013-04-01 01:51:00,
2013-03-31 21:56:00,43.7,38.6,29.41,South,186,1.6,3.5,82,0.00,CLR,SCT,0.00,WeatherDisplay:10.37,2013-04-01 01:56:00,
2013-03-31 22:01:00,43.4,38.3,29.40,South,169,4.2,6.9,82,0.00,CLR,SCT,0.00,WeatherDisplay:10.37,2013-04-01 02:01:00,
2013-03-31 22:06:00,43.1,38.6,29.40,SE,135,4.2,10.4,84,0.00,CLR,SCT,0.00,WeatherDisplay:10.37,2013-04-01 02:06:00,
2013-03-31 22:11:00,42.7,38.5,29.40,SSE,155,3.0,6.9,85,0.00,CLR,SCT,0.00,WeatherDisplay:10.37,2013-04-01 02:11:00,
2013-03-31 22:16:00,42.4,38.8,29.40,SE,135,2.3,5.8,87,0.00,CLR,SCT,0.00,WeatherDisplay:10.37,2013-04-01 02:16:00,
2013-03-31 22:21:00,42.2,38.9,29.40,ESE,121,0.2,1.1,88,0.00,CLR,SCT,0.00,WeatherDisplay:10.37,2013-04-01 02:21:00,
2013-03-31 22:26:00,42.1,39.1,29.40,ESE,109,2.8,4.6,89,0.00,CLR,SCT,0.01,WeatherDisplay:10.37,2013-04-01 02:26:00,
2013-03-31 22:31:00,41.8,38.8,29.40,SSE,147,3.2,4.6,89,0.01,RA,SCT,0.01,WeatherDisplay:10.37,2013-04-01 02:31:00,
2013-03-31 22:36:00,41.6,39.2,29.39,SE,142,1.2,4.6,91,0.02,RA,SCT,0.02,WeatherDisplay:10.37,2013-04-01 02:36:00,
2013-03-31 22:41:00,41.3,38.9,29.39,ESE,115,2.9,5.0,91,0.03,RA,SCT,0.03,WeatherDisplay:10.37,2013-04-01 02:41:00,
2013-03-31 22:46:00,41.2,39.1,29.39,ESE,103,1.5,3.5,92,0.03,RA,SCT,0.04,WeatherDisplay:10.37,2013-04-01 02:46:00,
2013-03-31 22:51:00,41.1,39.2,29.39,ESE,112,0.8,2.3,93,0.04,RA,SCT,0.04,WeatherDisplay:10.37,2013-04-01 02:51:00,
2013-03-31 22:56:00,41.1,39.2,29.39,ENE,75,0.0,0.0,93,0.05,RA,SCT,0.05,WeatherDisplay:10.37,2013-04-01 02:56:00,
2013-03-31 23:01:00,41.1,39.2,29.39,WNW,292,1.4,2.3,93,0.06,RA,SCT,0.06,WeatherDisplay:10.37,2013-04-01 03:01:00,
2013-03-31 23:06:00,41.1,39.2,29.39,WNW,292,0.0,0.0,93,0.06,RA,SCT,0.06,WeatherDisplay:10.37,2013-04-01 03:06:00,
2013-03-31 23:11:00,41.1,39.5,29.38,WNW,301,0.0,0.0,94,0.06,,SCT,0.06,WeatherDisplay:10.37,2013-04-01 03:11:00,
2013-03-31 23:16:00,41.1,39.5,29.37,NNW,329,1.4,2.3,94,0.07,RA,SCT,0.07,WeatherDisplay:10.37,2013-04-01 03:16:00,
2013-03-31 23:21:00,41.0,39.4,29.37,NNW,329,0.0,1.1,94,0.08,RA,SCT,0.08,WeatherDisplay:10.37,2013-04-01 03:21:00,
2013-03-31 23:26:00,41.0,39.4,29.36,NNW,331,0.5,2.3,94,0.08,RA,SCT,0.09,WeatherDisplay:10.37,2013-04-01 03:26:00,
2013-03-31 23:31:00,41.0,39.4,29.36,NNW,331,0.0,0.0,94,0.08,RA,SCT,0.09,WeatherDisplay:10.37,2013-04-01 03:31:00,
2013-03-31 23:36:00,41.0,39.4,29.36,NNW,331,1.3,1.3,94,0.07,CLR,SCT,0.09,WeatherDisplay:10.37,2013-04-01 03:36:00,
2013-03-31 23:42:00,41.0,39.7,29.36,NNW,331,0.0,1.1,95,0.06,CLR,SCT,0.09,WeatherDisplay:10.37,2013-04-01 03:42:00,
2013-03-31 23:47:00,41.0,39.7,29.36,NNW,331,0.0,1.0,95,0.05,CLR,SCT,0.09,WeatherDisplay:10.37,2013-04-01 03:47:00,
2013-03-31 23:52:00,41.0,39.7,29.35,NNW,331,0.1,1.1,95,0.05,CLR,SCT,0.09,WeatherDisplay:10.37,2013-04-01 03:52:00,
2013-03-31 23:57:00,40.9,39.6,29.35,NNW,331,0.0,0.0,95,0.04,CLR,SCT,0.09,WeatherDisplay:10.37,2013-04-01 03:57:00,